Location: Stamford Observatory
(41.1241°N, 73.5498°W)
Time: 22:52:52
(UTC-04:00)

Daily predictions for brighter satellites

Satellite Brightness Start Highest point End
(mag) Time Altitude Azimuth Time Altitude Azimuth Time Altitude Azimuth
CENTAUR R/B 3.4 20:32:54 10° NW 20:40:52 79° WSW 20:49:18 10° SSE
DEBRIS 3.3 20:39:11 10° SW 20:42:10 69° SE 20:51:00 10° ENE
Cosmos 1943 Rocket 3.9 20:39:44 10° NW 20:44:39 32° WSW 20:49:30 10° SSW
Cosmos 923 Rocket 4.2 20:41:15 10° SSW 20:46:35 84° WNW 20:51:55 10° NNE
ERS-1 Rocket 4.0 20:42:34 10° SE 20:46:52 30° ENE 20:51:11 10° N
NOSS 2-2 (D) 4.4 20:42:57 10° SW 20:46:52 54° NW 20:51:25 10° NNE
Cosmos 1346 2.8 20:44:23 10° S 20:47:06 68° E 20:49:53 10° NNE
COSMOS 2455 4.2 20:42:23 10° NW 20:47:52 37° WSW 20:53:18 10° S
GENESIS II 4.3 20:48:56 10° NW 20:52:55 84° WSW 20:56:48 10° SSE
DNEPR-1 R/B 3.6 20:49:57 10° NW 20:54:13 86° WSW 20:58:54 10° SSE
CZ-4B DEB 2.8 20:53:22 10° SSE 20:56:17 55° ENE 20:59:14 10° N
Helios 1B rocket 2.4 20:53:06 10° NNE 20:57:15 71° ESE 21:01:22 10° S
Okean 1-7 Rocket 3.9 20:57:07 10° SSE 21:01:23 48° E 21:05:44 10° NNE
Meteor 1-29 2.9 20:58:20 10° NNE 21:01:42 62° E 21:05:01 10° S
ARGOS 4.4 20:58:30 10° ESE 21:02:54 26° ENE 21:07:18 10° N
Cosmos 405 Rocket 3.2 21:00:02 10° SSW 21:03:45 62° W 21:07:36 10° N
Cosmos 1238 Rocket 4.2 20:57:13 10° S 21:03:51 62° E 21:10:10 10° NNE
Aureole 3 Rocket 3.5 20:59:10 10° S 21:05:21 89° E 21:09:44 10° N
OAO 2 Rocket 3.9 21:01:25 10° WSW 21:06:00 40° S 21:10:25 11° ESE
SJ-11-01 4.3 21:02:07 10° SSE 21:06:48 89° ENE 21:11:33 10° NNW
ISS -2.8 21:04:29 10° WSW 21:07:42 50° NNW 21:10:56 10° NE
Aureole 1 Rocket 2.4 21:05:08 10° SSW 21:08:22 72° WNW 21:11:20 10° NNE
Cosmos 1606 Rocket 4.5 21:06:05 10° NNE 21:09:58 31° ENE 21:13:20 13° SE
Cosmos 1441 Rocket 3.0 21:07:32 10° S 21:11:16 81° E 21:15:01 10° NNE
ASTEX 1 3.5 21:08:58 10° SSE 21:13:47 62° E 21:18:37 10° N
Meteor 1-23 Rocket 4.2 21:10:20 10° S 21:15:50 68° E 21:21:25 10° NNE
Intercosmos 24 4.0 21:13:09 10° N 21:16:49 48° E 21:19:46 13° SSE
Cosmos 1025 Rocket 3.0 21:13:35 10° S 21:17:48 64° E 21:22:02 10° NNE
USA 186 4.2 21:16:29 10° SSW 21:18:57 20° W 21:21:21 10° NW
Cosmos 2112 Rocket 4.5 21:13:53 10° SSW 21:19:04 66° WNW 21:24:16 10° NNE
Cosmos 1726 Rocket 4.4 21:15:23 10° NNE 21:19:19 33° ENE 21:22:18 15° SE
Lacrosse 5 rocket 4.5 21:19:18 10° NNW 21:20:38 11° N 21:21:57 10° NNE
Okean 2 3.5 21:19:52 10° S 21:23:51 56° E 21:27:52 10° NNE
Cosmos 1624 Rocket 4.1 21:20:49 10° NNW 21:26:05 65° ENE 21:30:26 15° SSE
USA 245 4.1 21:26:05 15° E 21:26:37 16° ENE 21:28:10 10° NNE
Cosmos 2082 Rocket 2.9 21:26:00 10° SSE 21:30:56 31° ESE 21:35:52 10° NE
H-2A R/B 3.2 21:28:36 15° ESE 21:31:45 27° ENE 21:35:58 10° N
Cosmos 2278 4.1 21:26:37 10° NNW 21:32:10 49° ENE 21:36:16 18° SE
SL-27 R/B 4.2 21:28:50 10° SW 21:32:15 37° WNW 21:35:42 10° N
Cosmos 2058 Rocket 3.8 21:32:21 10° N 21:36:30 38° ENE 21:39:01 20° SE
MOS 1-B Rocket 4.1 21:32:35 15° SSE 21:37:30 68° ENE 21:44:01 10° N
PSLV R/B 3.9 21:34:39 10° W 21:37:33 35° SSW 21:38:47 25° SSE
Cosmos 2181 Rocket 4.3 21:31:33 10° SSE 21:37:34 51° E 21:43:37 10° NNE
Meteor 1-15 Rocket 4.2 21:32:00 10° N 21:37:37 86° E 21:42:38 13° S
YAOGAN 11 4.3 21:38:19 20° SE 21:41:07 53° ENE 21:45:21 10° N
Cosmos 2056 Rocket 3.4 21:40:24 10° NNW 21:45:35 90° ENE 21:49:16 19° SSE
YAOGAN 6 3.5 21:43:14 11° S 21:46:28 42° W 21:49:49 10° NNW
Meteor 1-4 Rocket 4.0 21:45:28 10° NNE 21:48:19 22° ENE 21:49:11 20° E
Cosmos 1697 Rocket 3.6 21:45:07 10° N 21:50:15 35° ENE 21:53:32 19° ESE
Cosmos 2369 3.8 21:46:41 10° NNW 21:52:26 71° ENE 21:56:03 23° SE
Cosmos 1656 4.0 21:48:20 10° NNW 21:53:39 51° ENE 21:56:49 24° SE
Cosmos 839 Rocket 4.4 21:47:03 10° NNW 21:53:39 82° ENE 21:59:18 21° SE
H-2A R/B 3.8 21:54:53 17° E 21:56:41 22° ENE 22:00:08 10° NNE
Cosmos 962 Rocket 4.5 21:51:42 10° N 21:57:58 88° E 22:02:44 18° S
Tiangong 2 1.5 21:59:10 10° W 22:02:19 61° N 22:04:08 22° ENE
Cosmos 1833 Rocket 2.7 22:01:02 13° S 22:05:59 58° ESE 22:11:30 10° NNE
MetOp-A 4.4 22:02:23 18° S 22:06:25 69° WSW 22:11:46 10° NNW
Cosmos 1626 Rocket 4.3 22:05:32 30° ESE 22:06:35 35° E 22:10:30 10° NNE
COSMOS 2487 2.7 22:10:54 16° SSW 22:13:37 68° WNW 22:17:11 10° NNE
Terra 2.7 22:12:17 26° ESE 22:13:59 34° ENE 22:18:17 10° N
Cosmos 1437 Rocket 4.1 22:11:10 10° NNW 22:14:42 35° W 22:17:17 16° SSW
SL-8 Rocket 4.0 22:09:05 10° N 22:15:21 74° E 22:18:59 27° SSE
Cosmos 1271 Rocket 4.4 22:13:59 10° NNE 22:17:00 21° ENE 22:17:24 20° E
Cosmos 1452 Rocket 3.5 22:12:12 10° NNW 22:17:29 71° ENE 22:19:50 33° SE
TELKOM 3 3.3 22:18:08 10° NW 22:20:37 83° NE 22:20:45 78° E
Cosmos 2228 3.0 22:16:34 10° N 22:20:53 81° W 22:22:37 35° S
SPOT 5 2.9 22:18:47 28° S 22:20:56 63° WSW 22:25:17 10° NNW
Cosmos 2366 rocket 4.1 22:15:35 10° N 22:21:41 61° E 22:24:34 31° SSE
Cosmos 921 Rocket 3.6 22:18:21 10° NNW 22:22:43 52° WSW 22:24:47 28° SSW
SPOT 1/Viking Rocket 3.5 22:20:35 31° SSE 22:23:10 89° WSW 22:28:22 10° NNW
Cosmos 1066 Rocket 4.1 22:20:34 24° S 22:24:02 81° E 22:29:42 10° NNE
ERS-1 Rocket 4.4 22:21:27 12° SSW 22:25:33 32° W 22:30:02 10° NNW
Cosmos 1544 4.4 22:35:24 10° NNE 22:38:17 27° ENE 22:38:17 27° ENE
Cosmos 1980 Rocket 2.6 22:33:34 10° NNW 22:39:05 51° ENE 22:41:05 35° ESE
Cosmos 1953 4.1 22:36:15 10° NNE 22:39:18 20° ENE 22:39:20 20° ENE
Cosmos 1602 Rocket 3.4 22:40:41 50° S 22:41:47 85° E 22:46:07 10° N
ARGOS 4.1 22:39:41 21° SSW 22:42:52 43° W 22:48:02 10° NNW
Cosmos 468 4.4 22:41:30 27° SSW 22:44:24 88° W 22:49:44 10° NNE
ISS -0.6 22:42:38 10° NW 22:44:47 16° NNW 22:46:55 10° NNE
Cosmos 2322 Rocket 3.8 22:45:21 10° N 22:49:59 25° NE 22:52:24 19° E
Cosmos 1766 3.1 22:47:04 10° N 22:50:58 74° E 22:51:05 73° E
Meteor 1-21 4.2 22:49:13 43° SSE 22:51:01 67° E 22:56:44 10° NNE
USA 229 DEB 3.9 22:45:12 10° NNW 22:52:20 67° NE 22:55:40 34° SE
USA 229 4.0 22:45:19 10° NNW 22:52:26 67° NE 22:55:46 34° ESE
deb Chang Zheng 4 3.4 22:49:45 10° NNE 22:54:03 68° ESE 22:54:23 65° SE
Meteor 2-14 Rocket 4.3 22:50:31 10° N 22:56:37 88° E 22:58:47 43° S
Timation 2 Rocket 3.9 22:52:16 21° SSW 22:56:43 89° WNW 23:02:55 10° NNE
Lacrosse 5 rocket 3.7 22:57:53 10° NNW 23:01:29 22° NNE 23:04:30 12° ENE
Cosmos 2218 Rocket 4.4 22:57:32 10° NNW 23:03:33 56° W 23:06:28 30° SSW
Cosmos 158 Rocket 3.9 23:02:36 44° SSW 23:04:23 90° ESE 23:09:48 10° NNE
CARTOSAT-1 3.7 23:07:09 58° SW 23:07:39 64° W 23:11:57 10° NNW
DELTA 2 DEB (DPAF) 4.4 23:08:27 53° E 23:08:45 55° ENE 23:13:09 10° N
H-2A R/B 3.1 23:09:14 26° SW 23:11:01 34° W 23:15:37 10° NNW
CZ-2C R/B 4.3 23:07:54 10° NE 23:11:39 20° E 23:11:39 20° E
Cosmos 2082 Rocket 3.5 23:09:39 10° SW 23:14:53 37° WNW 23:20:08 10° N
CZ-4B R/B 3.4 23:10:07 10° NNE 23:15:15 75° ESE 23:16:02 62° SSE
CZ-4 R/B 3.9 23:14:11 10° NNE 23:19:14 84° WNW 23:20:15 58° SSW
Cosmos 1805 3.4 23:17:19 10° N 23:20:47 69° N 23:20:47 69° N
Cosmos 1758 3.6 23:17:42 10° N 23:21:12 61° NNE 23:21:12 61° NNE
IGS 5A 4.2 23:25:25 41° WSW 23:25:34 41° W 23:29:32 10° NNW
Nadezhda 3 Rocket 4.0 23:27:58 46° SSW 23:30:01 82° W 23:36:25 10° N
Cosmos 1758 Rocket 3.8 23:30:38 59° NE 23:30:38 59° NE 23:34:26 10° NNE
H-2A R/B 3.1 23:32:00 37° WSW 23:32:26 37° W 23:36:40 10° NNW
Cosmos 1697 Rocket 3.7 23:29:10 10° NW 23:34:08 33° WSW 23:35:16 30° SW
ATLAS CENTAUR R/B 2.5 23:31:40 10° NNW 23:34:34 32° NE 23:34:34 32° NE
Cosmos 2239 Rocket 4.4 23:29:51 10° N 23:36:03 77° E 23:37:17 58° SSE
Tiangong 2 4.0 23:35:59 10° WNW 23:36:21 13° WNW 23:36:21 13° WNW
Cosmos 2360 4.3 23:33:31 10° NNW 23:39:10 64° WSW 23:39:55 57° SSW
SL-16 R/B 2.4 23:37:04 10° NNW 23:42:41 60° ENE 23:43:34 53° ESE
Cosmos 1821 Rocket 3.9 23:39:00 10° N 23:45:20 88° E 23:46:36 60° S
CZ-4C R/B 4.4 23:48:47 38° NW 23:48:47 38° NW 23:51:18 10° NNW
Cosmos 389 Rocket 4.0 23:46:04 10° NNW 23:48:14 34° NNW 23:48:14 34° NNW
Terra 3.4 23:51:10 24° WSW 23:51:45 25° W 23:55:39 10° NW
Cosmos 972 Rocket 3.8 23:46:35 10° NNW 23:51:46 84° ENE 23:51:48 84° E
Cosmos 1331 Rocket 3.8 23:47:01 10° NNW 23:52:13 86° ENE 23:52:20 84° ESE
Cosmos 1271 Rocket 4.5 23:49:43 10° NW 23:52:36 25° W 23:52:36 25° W
